This is the latest recevied weather packets stored in our database for station/object NE8U. If no packets are shown the sender has not sent any weather packets the latest 10 day(s).
| Time | Temp. | Humidity | Pressure | Rain* | Wind** | Luminosity | Snow |
|---|---|---|---|---|---|---|---|
| 1777647164 | 20° C | 52% | 1014.4 hPa | 0 mm | - | 263 W/m² | - |
| 1777646860 | 20° C | 51% | 1014.3 hPa | 0 mm | - | 235 W/m² | - |
| 1777646556 | 19.44° C | 53% | 1014.3 hPa | 0 mm | - | 247 W/m² | - |
| 1777646252 | 18.89° C | 54% | 1014.4 hPa | 0 mm | - | 223 W/m² | - |
| 1777645949 | 18.89° C | 55% | 1014.4 hPa | 0 mm | - | 205 W/m² | - |
| 1777645641 | 18.89° C | 55% | 1014.3 hPa | 0 mm | - | 201 W/m² | - |
| 1777645337 | 18.89° C | 55% | 1014.2 hPa | 0 mm | - | 190 W/m² | - |
| 1777645033 | 18.33° C | 56% | 1014.2 hPa | 0 mm | - | 190 W/m² | - |
| 1777644730 | 18.33° C | 57% | 1014.3 hPa | 0 mm | - | 186 W/m² | - |
| 1777644427 | 17.78° C | 54% | 1014.2 hPa | 0 mm | - | 166 W/m² | - |
| 1777644124 | 17.78° C | 54% | 1014.3 hPa | 0 mm | - | 151 W/m² | - |
| 1777643820 | 17.22° C | 55% | 1014.3 hPa | 0 mm | - | 123 W/m² | - |
| 1777643517 | 16.67° C | 56% | 1014.2 hPa | 0 mm | - | 115 W/m² | - |
| 1777643214 | 17.78° C | 58% | 1014.1 hPa | 0 mm | - | 65 W/m² | - |
| 1777642910 | 17.78° C | 58% | 1014 hPa | 0 mm | - | 58 W/m² | - |
| 1777642607 | 16.67° C | 61% | 1013.7 hPa | 0 mm | - | 52 W/m² | - |
| 1777642304 | 16.67° C | 62% | 1013.8 hPa | 0 mm | - | 47 W/m² | - |
| 1777642001 | 16.11° C | 64% | 1014 hPa | 0 mm | - | 42 W/m² | - |
| 1777641696 | 15.56° C | 66% | 1013.8 hPa | 0 mm | - | 36 W/m² | - |
| 1777641392 | 15° C | 68% | 1014 hPa | 0 mm | - | 29 W/m² | - |
| 1777641087 | 15° C | 69% | 1013.9 hPa | 0 mm | - | 22 W/m² | - |
| 1777640784 | 15° C | 67% | 1013.8 hPa | 0 mm | - | 20 W/m² | - |
| 1777640481 | 15.56° C | 63% | 1013.7 hPa | 0 mm | - | 16 W/m² | - |
| 1777640178 | 16.11° C | 60% | 1013.7 hPa | 0 mm | - | 13 W/m² | - |
| 1777639874 | 16.11° C | 60% | 1013.4 hPa | 0 mm | - | 10 W/m² | - |
* Rain latest hour (hover to see other rain measurements)
** Current wind speed in m/s (hover to see current wind gust speed)